Skip Page Navigation
NASA JPL Caltech
NASA Logo - Jet Propulsion Laboratory + View the NASA Portal
+ Center for Near-Earth Object Studies
JPL Home Earth Solar System Stars & Galaxies Technology
JPL Solar System Dynamics
BODIES ORBITS EPHEMERIDES TOOLS PHYSICAL DATA DISCOVERY FAQ SITE MAP
IMPORTANT: The SSD Announcement email list is now available. Major changes are coming in the near future, including possible hostname and/or URL changes. To be notified of such changes, subscribe to this email list.

Please visit this page for more details.


JPL Small-Body Database Browser
Search: [ help ]  
11704 Gorin (1998 FZ130)
Classification: Main-belt Asteroid          SPK-ID: 2011704
Ephemeris | Orbit Diagram | Orbital Elements | Mission Design | Physical Parameters | Discovery Circumstances ]

[ show orbit diagram ]
Orbital Elements at Epoch 2459000.5 (2020-May-31.0) TDB
Reference: JPL 22 (heliocentric ecliptic J2000)
 Element Value Uncertainty (1-sigma)   Units 
e .1273142124863399 3.7949e-08  
a 2.371159683168343 8.9111e-09 au
q 2.069277355426407 9.3232e-08 au
i 7.048256743239637 4.2485e-06 deg
node 10.4948177406799 2.9461e-05 deg
peri 303.0225515221613 3.3151e-05 deg
M 280.3857149192095 1.5977e-05 deg
tp 2459295.436232821746
(2021-Mar-21.93623282)
5.9553e-05 TDB
period 1333.643123317414
3.65
7.518e-06
2.058e-08
d
yr
n .2699372821002566 1.5217e-09 deg/d
Q 2.67304201091028 1.0046e-08 au
  Orbit Determination Parameters
   # obs. used (total)      1166  
   data-arc span      11554 days (31.63 yr)  
   first obs. used      1988-09-09  
   last obs. used      2020-04-28  
   planetary ephem.      DE431  
   SB-pert. ephem.      SB431-N16  
   condition code      0  
   norm. resid. RMS      .51717  
   source      ORB  
   producer      Otto Matic  
   solution date      2020-May-20 03:35:54  

Additional Information
 Earth MOID = 1.0659 au 
 Jupiter MOID = 2.60544 au 
 T_jup = 3.523 
[ show covariance matrix ]

Ephemeris | Orbit Diagram | Orbital Elements | Mission Design | Physical Parameters | Discovery Circumstances ]

Physical Parameter Table
Parameter Symbol Value Units Sigma Reference Notes
absolute magnitude H 15.0   n/a MPO319231  
diameter diameter 2.679 km 0.119 urn:nasa:pds:neowise_diameters_albedos::2.0[mainbelt] (http://adsabs.harvard.edu/abs/2011ApJ...741...68M)  
geometric albedo albedo 0.246   0.045 urn:nasa:pds:neowise_diameters_albedos::2.0[mainbelt] (http://adsabs.harvard.edu/abs/2011ApJ...741...68M)  

11704 Gorin           Discovered 1998 Mar. 22 by the Lincoln Laboratory Near-Earth Asteroid Research Team at Socorro.
Michael Adam Gorin (b. 1985) is a finalist in the 2002 Intel International Science and Engineering Fair for his biochemistry project. He attends the Lynbrook High School, Hewlett, New York, U.S.A.
NOTE: some special characters may not display properly (any characters within {} are an attempt to place the proper accent above a character)
Reference: 20020724/MPCPages.arcLast Updated: 2003-10-02

Alternate Designations
 1998 FZ130 = 1988 RB4 = 1994 CS15 
Ephemeris | Orbit Diagram | Orbital Elements | Mission Design | Physical Parameters | Discovery Circumstances ]
ABOUT SSD CREDITS/AWARDS PRIVACY/COPYRIGHT GLOSSARY LINKS
FirstGov 2020-May-25 15:05 UT
(server date/time)  
NASA Home Page
Site Manager:   Ryan S. Park
Webmaster  Alan B. Chamberlin